Regional Weather Roundup
Issued by NWS Columbia, SC

Home | Current Version | Previous Version | Text Only | Print | Product List | Glossary On
Versions: 1 2 3 4 5 6 7 8 9 10 11 12 13 14 15 16 17 18 19 20 21 22 23 24 25 26 27 28 29 30 31 32 33 34 35 36 37 38 39 40 41 42 43 44 45 46 47 48 49 50
000
ASUS42 KCAE 241410
RWRCAE
REGIONAL WEATHER ROUNDUP
NATIONAL WEATHER SERVICE COLUMBIA SC
1000 AM EDT WED MAY 24 2017

NOTE: "FAIR" INDICATES FEW OR NO CLOUDS BELOW 12,000 FEET WITH NO
SIGNIFICANT WEATHER AND/OR OBSTRUCTIONS TO VISIBILITY.

NOT ALL STATIONS ARE QUALITY CONTROLLED BY THE NATIONAL
WEATHER SERVICE. USE DATA WITH CAUTION...ESPECIALLY
DEWPOINT OBSERVATIONS.

SCZ001>056-GAZ040-063>065-077-241500-
...UPSTATE SOUTH CAROLINA...

CITY           SKY/WX    TMP DP  RH WIND       PRES   REMARKS
ANDERSON       CLOUDY    67  65  93 SE7       29.61F
SPARTANBURG    CLOUDY    68  61  77 SE6       29.63S
CLEMSON        CLOUDY    67  64  90 CALM      29.62F FOG
GREENVILLE     CLOUDY    68  62  81 S7        29.63S
GREENWOOD      PTSUNNY   71  66  84 S8        29.64S
GREER          CLOUDY    68  62  81 SE5       29.62F
ROCK HILL      CLOUDY    67  65  93 S6        29.66F
CHESTER        CLOUDY    68  66  94 S6        29.66S
LAURENS        CLOUDY    68  64  88 S7        29.64S


...CENTRAL SOUTH CAROLINA...

CITY           SKY/WX    TMP DP  RH WIND       PRES   REMARKS
COLUMBIA APT   CLOUDY    73  68  84 SW7       29.63F
COLUMBIA OWENS CLOUDY    72  69  90 SW6       29.66S
MCENTIRE ANGB  CLOUDY    72  69  93 S3        29.66S
ORANGEBURG     CLOUDY    72  69  90 SW10      29.66F
SUMTER SHAW    CLOUDY    72  68  88 SW10      29.64S
NEWBERRY       CLOUDY    68  68 100 S3        29.66F
AIKEN          CLOUDY    72  68  88 S6        29.67F
BARNWELL       CLOUDY    77  72  83 SW5       29.65F
MANNING        CLOUDY    72  72 100 SW21G26   29.67F
CAMDEN         CLOUDY    70  68  94 CALM      29.66F FOG
LANCASTER      CLOUDY    68  68 100 S3        29.66S
WINNSBORO      DRIZZLE   68  68 100 S3        29.65S


...EASTERN AND COASTAL SOUTH CAROLINA...

CITY           SKY/WX    TMP DP  RH WIND       PRES   REMARKS
MYRTLE BEACH   CLOUDY    75  70  83 SW9       29.70S
N MYRTLE BCH   PTSUNNY   76  70  82 SW15      29.69S
CONWAY         CLOUDY    72  68  88 SW5       29.70R
MARION         CLOUDY    70  66  88 S5        29.69R
HARTSVILLE     CLOUDY    70  68  94 S5        29.66S
FLORENCE       CLOUDY    73  69  87 SW9       29.67F
DARLINGTON     CLOUDY    71  69  93 S6        29.67S
CHARLESTON APT PTSUNNY   78  69  73 SW10      29.68S
MOUNT PLEASANT FAIR      79  72  78 S7        29.68F
WALTERBORO     CLOUDY    75  70  83 S8        29.68F
BEAUFORT       PTSUNNY   79  73  82 S8G21     29.67F


...EASTERN GEORGIA...

CITY           SKY/WX    TMP DP  RH WIND       PRES   REMARKS
AUGUSTA BUSH F CLOUDY    76  70  82 SW9       29.62F
AUGUSTA DANIEL CLOUDY    75  67  76 S7        29.64F
THOMSON        CLOUDY    72  69  92 W5        29.67F
WASHINGTON     CLOUDY    72  72 100 S8        29.62S
CLAXTON        PTSUNNY   76  76 100 S5        29.65F
SYLVANIA       CLOUDY    76  74  92 SW6       29.66F
STATESBORO     CLOUDY    78  78 100 SW8       29.65F
SAVANNAH       CLOUDY    80  69  69 SW12      29.67F


...SOUTHERN NORTH CAROLINA...

CITY           SKY/WX    TMP DP  RH WIND       PRES   REMARKS
CHARLOTTE      CLOUDY    69  63  81 SE10      29.65F
MONROE         CLOUDY    68  63  84 S3        29.65F
WADESBORO      RAIN      68  65  90 CALM      29.67S
ROCKINGHAM     CLOUDY    70  68  95 SW5       29.67S
RUTHERFORDTON  CLOUDY    65  65 100 S3        29.65F
ASHEVILLE      CLOUDY    63  59  87 SE9       29.63F

$$



USA.gov is the U.S. government's official web portal to all federal, state and local government web resources and services.